[[{"header":{"parameterUnit":"m.s-1","parameterCategory":1,"la1":30.2991,"la2":30.254,"lo1":-89.0895,"lo2":-89.0444,"dy":0.0017,"dx":0.0017,"nx":28,"ny":28,"refTime":"2025-04-22T09:00:00:Z","depth":0,"parameterNumber":2,"parameterNumberName":"U-component_of_WINDS"},"data":[0,0,0,0,0,0,0,0,0,0,0,0,0,0,0,0,0,0,0,0,0,0,0,0,0,0,0,0,0,0,0,0,0,0,0,0,0,0,0,0,0,0,0,0,0,0,0,0,0,0,0,0,0,0,0,0,0,0,-3.5688,-3.569,0,-3.5863,-3.5865,-3.5867,-3.5901,-3.59,-3.5899,-3.5897,-3.6077,-3.6083,-3.6089,0,0,0,0,0,0,0,0,0,0,0,0,0,-3.5383,-3.5388,-3.5688,-3.569,-3.5692,-3.5863,-3.5865,-3.5868,-3.5902,-3.59,-3.5898,-3.5897,-3.6075,-3.6082,-3.6089,0,0,0,0,0,0,0,0,0,0,0,0,0,-3.5532,-3.539,-3.5687,-3.573,-3.5735,-3.5862,-3.5865,-3.5868,-3.5902,-3.59,-3.5898,-3.5896,-3.6072,-3.6081,-3.609,-3.6187,0,0,-3.6118,-3.6122,0,0,0,0,0,0,0,0,-3.5524,-3.5544,-3.5721,-3.5727,-3.5733,-3.5858,-3.5824,-3.5975,-3.5903,-3.5839,-3.5897,-3.5895,-3.6006,-3.602,-3.6057,-3.6196,-3.6203,-3.6119,-3.6124,-3.6128,-3.6131,0,0,0,0,0,0,0,-3.5514,-3.5536,-3.5757,-3.5724,-3.5731,-3.574,-3.5759,-3.5852,-3.5932,-3.5844,-3.5847,-3.5867,-3.6009,-3.6049,-3.6062,-3.6206,-3.6118,-3.6126,-3.6132,-3.6136,-3.6433,-3.6435,0,0,0,0,0,0,-3.5496,-3.5527,-3.5751,-3.5762,-3.5621,-3.5747,-3.5768,-3.582,-3.5931,-3.5945,-3.5869,-3.5868,-3.6034,-3.6051,-3.6068,-3.6189,-3.6128,-3.6136,-3.6142,-3.643,-3.6433,-3.6436,0,0,0,0,0,0,-3.5489,-3.5515,-3.5744,-3.5646,-3.5676,-3.5755,-3.5813,-3.5825,-3.5865,-3.5949,-3.5964,-3.5895,-3.6033,-3.6056,-3.6157,-3.6196,-3.6141,-3.6149,-3.6427,-3.6431,-3.6435,-3.6431,0,0,0,0,0,0,-3.548,-3.5513,-3.555,-3.5646,-3.5681,-3.583,-3.5815,-3.583,-3.588,-3.5881,-3.5978,-3.5992,-3.6033,-3.6144,-3.6166,-3.6207,-3.6156,-3.6424,-3.6429,-3.6433,-3.6428,-3.6434,-3.6439,0,0,0,0,0,-3.5469,-3.5542,-3.5552,-3.5579,-3.5729,-3.5832,-3.5852,-3.5898,-3.5883,-3.5922,-3.5976,-3.5989,-3.6188,-3.6154,-3.618,-3.6224,-3.6422,-3.6428,-3.6433,-3.6425,-3.6433,-3.6439,0,0,0,0,0,0,-3.5448,-3.5555,-3.5567,-3.5674,-3.5744,-3.5838,-3.5888,-3.5905,-3.598,-3.5978,-3.6032,-3.6054,-3.6152,-3.6199,-3.6159,-3.6324,-3.6304,-3.6315,-3.6289,-3.6297,-3.6303,-3.6289,-3.6163,0,0,0,0,0,-3.5456,-3.553,-3.562,-3.5705,-3.574,-3.5808,-3.5855,-3.5884,-3.5959,-3.5989,-3.6051,-3.6123,-3.6202,-3.6252,-3.633,-3.6435,-3.6457,-3.6479,-3.6484,-3.6488,-3.6497,-3.6556,-3.6566,-3.6454,-3.6454,-3.6454,0,0,-3.5472,-3.554,-3.5584,-3.5703,-3.5761,-3.5837,-3.5832,-3.5913,-3.597,-3.6001,-3.6101,-3.6149,-3.6233,-3.6337,-3.6386,-3.6378,-3.6533,-3.6495,-3.6498,-3.6504,-3.6563,-3.6573,-3.6582,-3.6458,-3.6457,-3.6457,0,0,-3.5541,-3.56,-3.5677,-3.5736,-3.5823,-3.5868,-3.5887,-3.5979,-3.6012,-3.6113,-3.6138,-3.6207,-3.6342,-3.6401,-3.6448,-3.6541,-3.6555,-3.6565,-3.6593,-3.665,-3.6659,-3.6667,-3.6699,-3.671,-3.6573,-3.6573,-3.6573,0,-3.555,-3.5666,-3.5715,-3.5795,-3.5846,-3.5879,-3.5957,-3.6011,-3.612,-3.6155,-3.6145,-3.6315,-3.6374,-3.6492,-3.6515,-3.6553,-3.6575,-3.6553,-3.6654,-3.6663,-3.6671,-3.6702,-3.6714,-3.6574,-3.6573,-3.6573,-3.6573,0,-3.5673,-3.5753,-3.5805,-3.5909,-3.5966,-3.6045,-3.6106,-3.6159,-3.6184,-3.623,-3.6333,-3.6405,-3.6497,-3.6528,-3.6553,-3.665,-3.6643,-3.6643,-3.6624,-3.6681,-3.6711,-3.6724,-3.6574,-3.6574,-3.6574,-3.6574,0,0,-3.5731,-3.5862,-3.588,-3.5928,-3.6028,-3.6091,-3.6171,-3.6262,-3.6306,-3.638,-3.6449,-3.6563,-3.6564,-3.6618,-3.665,-3.6701,-3.6768,-3.6695,-3.6698,-3.6705,-3.6879,-3.6877,-3.689,-3.6779,-3.6782,-3.6784,-3.6871,0,-3.5811,-3.5956,-3.6003,-3.6123,-3.6197,-3.623,-3.63,-3.6369,-3.6415,-3.6485,-3.6535,-3.6614,-3.661,-3.6643,-3.6694,-3.6749,-3.6804,-3.6744,-3.6843,-3.6846,-3.6819,-3.6906,-3.6904,-3.6983,-3.6884,-3.6886,-3.6887,0,-3.5923,-3.5999,-3.6127,-3.6218,-3.6251,-3.6313,-3.64,-3.6467,-3.6546,-3.6575,-3.6636,-3.6665,-3.6751,-3.6728,-3.6847,-3.6805,-3.6849,-3.6882,-3.6886,-3.6896,-3.6869,-3.6917,-3.701,-3.7021,-3.6906,-3.6905,-3.6903,0,-3.5951,-3.6086,-3.618,-3.622,-3.6328,-3.6371,-3.6419,-3.6496,-3.6548,-3.6624,-3.6658,-3.6743,-3.679,-3.6855,-3.6906,-3.6885,-3.702,-3.7002,-3.7046,-3.7045,-3.7072,-3.7069,-3.7171,-3.7102,-3.7102,-3.7102,-3.7102,0,-3.6035,-3.6111,-3.6194,-3.6251,-3.6339,-3.6393,-3.6477,-3.6526,-3.6595,-3.6663,-3.6696,-3.6759,-3.6824,-3.6895,-3.6936,-3.7027,-3.7048,-3.7074,-3.7084,-3.707,-3.7067,-3.7098,-3.7094,-3.7105,-3.7104,-3.7104,-3.7103,0,-3.608,-3.6139,-3.6243,-3.6338,-3.6364,-3.6423,-3.6504,-3.6562,-3.6609,-3.6694,-3.6718,-3.6792,-3.6878,-3.6936,-3.7046,-3.7073,-3.7172,-3.7181,-3.7145,-3.7149,-3.719,-3.7185,-3.7315,-3.7334,-3.7253,-3.7254,-3.7255,0,-3.6129,-3.6188,-3.629,-3.6338,-3.6385,-3.6462,-3.6515,-3.6571,-3.6625,-3.672,-3.6765,-3.6854,-3.6927,-3.7062,-3.7126,-3.721,-3.7221,-3.7261,-3.7234,-3.7218,-3.722,-3.7215,-3.7221,-3.7265,-3.7265,-3.7266,-3.7266,0,-3.6208,-3.6234,-3.6309,-3.6395,-3.6458,-3.6528,-3.6598,-3.6636,-3.6704,-3.6763,-3.6851,-3.6908,-3.7021,-3.7107,-3.7198,-3.7247,-3.7268,-3.7275,-3.7289,-3.7275,-3.7251,-3.7263,-3.7155,-3.7271,-3.727,-3.727,-3.727,-3.727,-3.6256,-3.6311,-3.639,-3.6473,-3.6532,-3.6597,-3.6656,-3.6711,-3.6786,-3.6881,-3.691,-3.7002,-3.708,-3.7204,-3.7254,-3.7327,-3.7323,-3.7344,-3.7349,-3.7353,-3.7353,-3.7241,-3.7344,-3.7344,-3.7344,-3.7344,-3.7343,0,-3.6336,-3.6389,-3.6465,-3.6563,-3.6628,-3.6643,-3.6722,-3.6776,-3.6856,-3.6927,-3.6999,-3.71,-3.7185,-3.7256,-3.7344,-3.7388,-3.74,-3.7409,-3.7405,-3.7416,-3.7352,-3.733,-3.7398,-3.7398,-3.7398,-3.7398,-3.7398,-3.7398,-3.6385,-3.6478,-3.6514,-3.6637,-3.669,-3.678,-3.6824,-3.6884,-3.6942,-3.7053,-3.7124,-3.717,-3.7242,-3.7335,-3.7413,-3.7432,-3.7462,-3.7469,-3.7489,-3.7427,-3.7421,-3.7415,-3.7394,-3.7475,-3.7475,-3.7548,-3.7548,-3.7549]},{"header":{"parameterUnit":"m.s-1","parameterCategory":1,"la1":30.2991,"la2":30.254,"lo1":-89.0895,"lo2":-89.0444,"dy":0.0017,"dx":0.0017,"nx":28,"ny":28,"refTime":"2025-04-22T09:00:00:Z","depth":0,"parameterNumber":3,"parameterNumberName":"V-component_of_WINDS"},"data":[0,0,0,0,0,0,0,0,0,0,0,0,0,0,0,0,0,0,0,0,0,0,0,0,0,0,0,0,0,0,0,0,0,0,0,0,0,0,0,0,0,0,0,0,0,0,0,0,0,0,0,0,0,0,0,0,0,0,4.0617,4.0617,0,4.0586,4.0585,4.0585,4.0514,4.0512,4.0511,4.0509,4.0475,4.0475,4.0475,0,0,0,0,0,0,0,0,0,0,0,0,0,4.0615,4.0615,4.0617,4.0617,4.0616,4.0586,4.0585,4.0585,4.0514,4.0512,4.051,4.0509,4.0474,4.0475,4.0476,0,0,0,0,0,0,0,0,0,0,0,0,0,4.0603,4.0616,4.0617,4.0577,4.0573,4.0586,4.0585,4.0585,4.0514,4.0512,4.051,4.0508,4.0474,4.0475,4.0476,4.0524,0,0,4.0478,4.0478,0,0,0,0,0,0,0,0,4.0604,4.0603,4.0584,4.058,4.0576,4.0551,4.0572,4.0564,4.0515,4.0537,4.0509,4.0507,4.0502,4.05,4.0499,4.0522,4.052,4.0478,4.0478,4.0478,4.0479,0,0,0,0,0,0,0,4.0605,4.0604,4.0605,4.0583,4.0579,4.0561,4.0557,4.057,4.0532,4.0535,4.0529,4.0527,4.0499,4.0498,4.0498,4.052,4.0478,4.0478,4.0479,4.0479,4.0583,4.0585,0,0,0,0,0,0,4.0612,4.0605,4.0606,4.0604,4.0585,4.0563,4.0558,4.0561,4.0531,4.0525,4.0529,4.0524,4.0498,4.0497,4.0496,4.0551,4.0478,4.0479,4.0479,4.0581,4.0584,4.0586,0,0,0,0,0,0,4.0612,4.0612,4.0607,4.0603,4.0601,4.0565,4.0569,4.0562,4.0561,4.0527,4.052,4.0535,4.0497,4.0495,4.0518,4.0549,4.0479,4.048,4.0578,4.0582,4.0585,4.0661,0,0,0,0,0,0,4.0612,4.0613,4.063,4.0604,4.0602,4.063,4.0571,4.0563,4.0563,4.0556,4.0531,4.0525,4.0495,4.0517,4.0519,4.0548,4.048,4.0575,4.0579,4.0584,4.0656,4.0667,4.0677,0,0,0,0,0,4.0612,4.0652,4.0632,4.0632,4.0623,4.0631,4.063,4.0595,4.0565,4.0583,4.0562,4.0525,4.0546,4.052,4.0521,4.0552,4.0573,4.0578,4.0583,4.0651,4.0665,4.0676,0,0,0,0,0,0,4.0681,4.0648,4.0625,4.0657,4.0648,4.0619,4.064,4.0611,4.0609,4.0602,4.0559,4.0554,4.0583,4.0569,4.0542,4.0598,4.0554,4.0559,4.0605,4.0618,4.0628,4.063,4.0481,0,0,0,0,0,4.0701,4.0711,4.0681,4.0713,4.0709,4.0676,4.0678,4.0653,4.0641,4.0636,4.0616,4.0606,4.061,4.0613,4.0615,4.0654,4.0648,4.0676,4.0687,4.0695,4.07,4.0722,4.0734,4.0604,4.0604,4.0603,0,0,4.074,4.0723,4.0732,4.0726,4.0716,4.0727,4.0673,4.0687,4.0695,4.0638,4.0658,4.0644,4.063,4.0662,4.0675,4.0651,4.0736,4.0702,4.0709,4.0709,4.0728,4.0741,4.0752,4.0607,4.0607,4.0606,0,0,4.0817,4.0806,4.0832,4.0823,4.0809,4.0787,4.0794,4.0771,4.0759,4.078,4.0738,4.0747,4.0755,4.0747,4.0744,4.0822,4.0789,4.0824,4.0878,4.0899,4.091,4.0918,4.0947,4.0957,4.083,4.083,4.083,0,4.0868,4.0883,4.0848,4.0866,4.0865,4.0817,4.0843,4.0836,4.0823,4.0824,4.0799,4.0809,4.0796,4.0826,4.0845,4.0844,4.0851,4.0826,4.0911,4.092,4.0927,4.0954,4.0965,4.0834,4.0834,4.0833,4.0833,0,4.0946,4.0959,4.0981,4.0972,4.0974,4.0995,4.0964,4.097,4.0946,4.0927,4.095,4.0933,4.0931,4.0937,4.0912,4.0964,4.095,4.0919,4.0873,4.0945,4.0969,4.0979,4.084,4.0839,4.0838,4.0837,0,0,4.1063,4.1037,4.1046,4.1042,4.1025,4.1033,4.1054,4.1053,4.106,4.1054,4.107,4.1079,4.1051,4.1048,4.1022,4.1041,4.1106,4.1008,4.1007,4.1026,4.1163,4.1186,4.1198,4.1085,4.1087,4.1088,4.1164,0,4.1136,4.1169,4.114,4.1179,4.1191,4.1147,4.1165,4.1156,4.114,4.1147,4.1129,4.1137,4.1099,4.1097,4.1114,4.1094,4.1133,4.1089,4.1099,4.11,4.1103,4.1211,4.1235,4.1307,4.1173,4.1175,4.1176,0,4.1224,4.1224,4.1265,4.1248,4.1251,4.1268,4.1267,4.1274,4.1264,4.1251,4.125,4.122,4.1239,4.1197,4.1223,4.1194,4.1197,4.1188,4.119,4.1189,4.1141,4.1212,4.1329,4.134,4.1191,4.119,4.1188,0,4.1306,4.1316,4.1342,4.134,4.132,4.1333,4.1325,4.1314,4.1316,4.1315,4.1317,4.1318,4.1318,4.132,4.1292,4.1263,4.1322,4.1276,4.1311,4.1312,4.1324,4.1324,4.1443,4.1328,4.1328,4.1328,4.1327,0,4.1389,4.1416,4.1378,4.1394,4.1424,4.1391,4.142,4.1408,4.1399,4.1412,4.1374,4.1387,4.1349,4.1358,4.1336,4.1362,4.1362,4.1352,4.1346,4.1355,4.1356,4.1355,4.1349,4.133,4.133,4.1329,4.1329,0,4.1484,4.146,4.1486,4.1466,4.1462,4.1485,4.1468,4.1482,4.1465,4.1482,4.1484,4.1457,4.1466,4.1438,4.1443,4.1428,4.1466,4.1451,4.1469,4.1464,4.1501,4.1498,4.1623,4.1638,4.1514,4.1516,4.1517,0,4.1538,4.1558,4.1542,4.1549,4.1543,4.1554,4.1558,4.1527,4.1532,4.1524,4.154,4.1546,4.1549,4.1567,4.1547,4.1551,4.1536,4.158,4.1536,4.1545,4.1536,4.1535,4.1537,4.1588,4.159,4.1591,4.1592,0,4.1637,4.1625,4.1632,4.1636,4.1641,4.1642,4.164,4.1648,4.1615,4.1623,4.1633,4.1636,4.1642,4.1649,4.1649,4.1641,4.1611,4.1607,4.1615,4.1624,4.1633,4.1629,4.1493,4.1603,4.1602,4.1601,4.1601,4.16,4.1713,4.173,4.1721,4.1731,4.1727,4.1727,4.174,4.1726,4.1734,4.1737,4.1719,4.1733,4.1725,4.1722,4.1718,4.1728,4.1708,4.172,4.1723,4.1726,4.1732,4.1633,4.1728,4.1728,4.1728,4.1727,4.1727,0,4.181,4.1804,4.1813,4.1813,4.1821,4.1795,4.1792,4.18,4.1814,4.1809,4.1815,4.1827,4.1835,4.1817,4.1822,4.1834,4.1821,4.1837,4.1835,4.1834,4.175,4.1742,4.1848,4.1847,4.1847,4.1847,4.1847,4.1847,4.1862,4.1889,4.1876,4.1902,4.1895,4.1909,4.191,4.1911,4.1907,4.1923,4.193,4.1919,4.191,4.1915,4.1921,4.1915,4.1919,4.1939,4.1929,4.1851,4.1839,4.1828,4.1821,4.194,4.1941,4.2012,4.2012,4.2013]}]]